SB KEPS @ AMSAT $ORB15029.O Orbital Elements 15029.OSCAR
HR AMSAT ORBITAL ELEMENTS FOR OSCAR SATELLITES FROM WA5QGD FORT WORTH,TX January 29, 2015 BID: ORB15029.O TO ALL RADIO AMATEURS BT
Satellite: AO-07 Catalog number: 07530 Epoch time: 15028.89432422 Element set: 180 Inclination: 101.5035 deg RA of node: 008.5341 deg Eccentricity: 0.0011752 Arg of perigee: 213.4935 deg Mean anomaly: 174.7630 deg Mean motion: 12.53611465 rev/day Decay rate: -3.7e-07 rev/day^2 Epoch rev: 83980 Checksum: 272
Satellite: FO-29 Catalog number: 24278 Epoch time: 15028.90429457 Element set: 569 Inclination: 098.5240 deg RA of node: 016.6501 deg Eccentricity: 0.0351356 Arg of perigee: 072.0931 deg Mean anomaly: 320.5835 deg Mean motion: 13.53042019 rev/day Decay rate: -1.4e-07 rev/day^2 Epoch rev: 91119 Checksum: 294
Satellite: SO-33 Catalog number: 25509 Epoch time: 15029.25359755 Element set: 933 Inclination: 031.4335 deg RA of node: 319.2205 deg Eccentricity: 0.0348577 Arg of perigee: 295.3435 deg Mean anomaly: 233.9451 deg Mean motion: 14.29813480 rev/day Decay rate: 5.22e-06 rev/day^2 Epoch rev: 84952 Checksum: 320
Satellite: RS-22 Catalog number: 27939 Epoch time: 15029.44657949 Element set: 260 Inclination: 097.8244 deg RA of node: 197.6622 deg Eccentricity: 0.0013938 Arg of perigee: 107.5494 deg Mean anomaly: 252.7231 deg Mean motion: 14.65742688 rev/day Decay rate: 9.02e-06 rev/day^2 Epoch rev: 60586 Checksum: 347
Satellite: HO-68 Catalog number: 36122 Epoch time: 15029.38063287 Element set: 343 Inclination: 100.2157 deg RA of node: 079.0204 deg Eccentricity: 0.0007697 Arg of perigee: 078.1580 deg Mean anomaly: 282.0398 deg Mean motion: 13.16323508 rev/day Decay rate: -6.0e-07 rev/day^2 Epoch rev: 24619 Checksum: 292
Satellite: AO-73 Catalog number: 39444 Epoch time: 15028.40673339 Element set: 368 Inclination: 097.7492 deg RA of node: 096.2316 deg Eccentricity: 0.0059853 Arg of perigee: 230.1642 deg Mean anomaly: 129.4295 deg Mean motion: 14.79515305 rev/day Decay rate: 1.980e-05 rev/day^2 Epoch rev: 6274 Checksum: 333
Satellite: EO-79 Catalog number: 40025 Epoch time: 15029.37968183 Element set: 656 Inclination: 097.9640 deg RA of node: 289.4026 deg Eccentricity: 0.0012033 Arg of perigee: 282.7103 deg Mean anomaly: 077.2764 deg Mean motion: 14.86428918 rev/day Decay rate: 2.032e-05 rev/day^2 Epoch rev: 3317 Checksum: 318
/EX SB KEPS @ AMSAT $ORB15029.D Orbital Elements 15029.MICROS
HR AMSAT ORBITAL ELEMENTS FOR THE MICROSATS FROM WA5QGD FORT WORTH,TX January 29, 2015 BID: ORB15029.D TO ALL RADIO AMATEURS BT
Satellite: UO-11 Catalog number: 14781 Epoch time: 15028.77076269 Element set: 727 Inclination: 097.8213 deg RA of node: 089.1689 deg Eccentricity: 0.0009467 Arg of perigee: 158.8400 deg Mean anomaly: 201.3206 deg Mean motion: 14.82114136 rev/day Decay rate: 8.67e-06 rev/day^2 Epoch rev: 66137 Checksum: 321
Satellite: AO-16 Catalog number: 20439 Epoch time: 15029.07481576 Element set: 229 Inclination: 098.5303 deg RA of node: 327.4038 deg Eccentricity: 0.0010474 Arg of perigee: 206.0223 deg Mean anomaly: 218.8056 deg Mean motion: 14.32479105 rev/day Decay rate: 1.31e-06 rev/day^2 Epoch rev: 30682 Checksum: 279
Satellite: LO-19 Catalog number: 20442 Epoch time: 15028.38830616 Element set: 161 Inclination: 098.5013 deg RA of node: 326.7064 deg Eccentricity: 0.0011630 Arg of perigee: 196.6440 deg Mean anomaly: 163.4364 deg Mean motion: 14.32674921 rev/day Decay rate: 1.08e-06 rev/day^2 Epoch rev: 30692 Checksum: 281
Satellite: AO-27 Catalog number: 22825 Epoch time: 15028.05506706 Element set: 876 Inclination: 098.6925 deg RA of node: 338.2639 deg Eccentricity: 0.0008286 Arg of perigee: 006.8685 deg Mean anomaly: 123.8251 deg Mean motion: 14.29824794 rev/day Decay rate: 9.2e-07 rev/day^2 Epoch rev: 11291 Checksum: 332
Satellite: IO-26 Catalog number: 22826 Epoch time: 15029.09653174 Element set: 633 Inclination: 098.6870 deg RA of node: 339.4891 deg Eccentricity: 0.0008608 Arg of perigee: 355.4253 deg Mean anomaly: 004.6849 deg Mean motion: 14.30136312 rev/day Decay rate: 1.18e-06 rev/day^2 Epoch rev: 11320 Checksum: 298
Satellite: GO-32 Catalog number: 25397 Epoch time: 15028.93106641 Element set: 554 Inclination: 098.5028 deg RA of node: 343.8753 deg Eccentricity: 0.0001777 Arg of perigee: 055.0216 deg Mean anomaly: 346.0081 deg Mean motion: 14.23510961 rev/day Decay rate: 6.8e-07 rev/day^2 Epoch rev: 85998 Checksum: 315
Satellite: NO-44 Catalog number: 26931 Epoch time: 15028.50742035 Element set: 809 Inclination: 067.0517 deg RA of node: 177.3759 deg Eccentricity: 0.0006864 Arg of perigee: 267.8324 deg Mean anomaly: 092.1991 deg Mean motion: 14.30245543 rev/day Decay rate: 1.25e-06 rev/day^2 Epoch rev: 69582 Checksum: 319
Satellite: SO-50 Catalog number: 27607 Epoch time: 15029.14395775 Element set: 649 Inclination: 064.5547 deg RA of node: 263.2473 deg Eccentricity: 0.0072850 Arg of perigee: 316.3747 deg Mean anomaly: 043.1609 deg Mean motion: 14.74402333 rev/day Decay rate: 6.92e-06 rev/day^2 Epoch rev: 65078 Checksum: 322
Satellite: CO-55 Catalog number: 27844 Epoch time: 15028.78006728 Element set: 126 Inclination: 098.6970 deg RA of node: 039.2962 deg Eccentricity: 0.0009211 Arg of perigee: 349.8228 deg Mean anomaly: 063.6246 deg Mean motion: 14.21694331 rev/day Decay rate: 3.40e-06 rev/day^2 Epoch rev: 60063 Checksum: 310
Satellite: CO-57 Catalog number: 27848 Epoch time: 15029.26022373 Element set: 63 Inclination: 098.7067 deg RA of node: 039.6034 deg Eccentricity: 0.0009197 Arg of perigee: 355.8445 deg Mean anomaly: 066.1947 deg Mean motion: 14.21357577 rev/day Decay rate: 2.30e-06 rev/day^2 Epoch rev: 60061 Checksum: 317
Satellite: AO-51 Catalog number: 28375 Epoch time: 15029.28904437 Element set: 49 Inclination: 098.2795 deg RA of node: 333.8375 deg Eccentricity: 0.0083303 Arg of perigee: 029.9978 deg Mean anomaly: 330.5947 deg Mean motion: 14.41564254 rev/day Decay rate: 2.99e-06 rev/day^2 Epoch rev: 55648 Checksum: 356
Satellite: CP3 Catalog number: 31129 Epoch time: 15028.65759804 Element set: 958 Inclination: 097.9635 deg RA of node: 000.6501 deg Eccentricity: 0.0097842 Arg of perigee: 029.3893 deg Mean anomaly: 019.0171 deg Mean motion: 14.55386355 rev/day Decay rate: 1.751e-05 rev/day^2 Epoch rev: 41282 Checksum: 319
Satellite: CO-65 Catalog number: 32785 Epoch time: 15029.18341877 Element set: 178 Inclination: 097.6684 deg RA of node: 077.7761 deg Eccentricity: 0.0014412 Arg of perigee: 160.5285 deg Mean anomaly: 235.6935 deg Mean motion: 14.86288827 rev/day Decay rate: 1.762e-05 rev/day^2 Epoch rev: 36558 Checksum: 361
Satellite: PRISM Catalog number: 33493 Epoch time: 15029.52940514 Element set: 715 Inclination: 098.2526 deg RA of node: 220.2641 deg Eccentricity: 0.0017526 Arg of perigee: 064.7889 deg Mean anomaly: 295.5178 deg Mean motion: 14.91826087 rev/day Decay rate: 3.277e-05 rev/day^2 Epoch rev: 32589 Checksum: 331
Satellite: SOHLA-1 Catalog number: 33496 Epoch time: 15029.17407587 Element set: 573 Inclination: 098.1925 deg RA of node: 156.0654 deg Eccentricity: 0.0005472 Arg of perigee: 236.6308 deg Mean anomaly: 245.4896 deg Mean motion: 14.71162387 rev/day Decay rate: 5.53e-06 rev/day^2 Epoch rev: 32273 Checksum: 322
Satellite: TISAT-1 Catalog number: 36799 Epoch time: 15029.21244291 Element set: 879 Inclination: 098.0143 deg RA of node: 128.1229 deg Eccentricity: 0.0012095 Arg of perigee: 305.0871 deg Mean anomaly: 084.9576 deg Mean motion: 14.87416395 rev/day Decay rate: 4.631e-05 rev/day^2 Epoch rev: 24629 Checksum: 325
Satellite: STUDSAT Catalog number: 36801 Epoch time: 15028.20963722 Element set: 994 Inclination: 098.0509 deg RA of node: 140.7440 deg Eccentricity: 0.0006722 Arg of perigee: 253.6085 deg Mean anomaly: 166.0609 deg Mean motion: 15.05127899 rev/day Decay rate: 1.9741e-04 rev/day^2 Epoch rev: 24686 Checksum: 314
Satellite: ALMASAT-1 Catalog number: 38078 Epoch time: 15029.10003736 Element set: 285 Inclination: 069.4564 deg RA of node: 228.1774 deg Eccentricity: 0.0522553 Arg of perigee: 088.7115 deg Mean anomaly: 277.3857 deg Mean motion: 14.66931523 rev/day Decay rate: 3.7031e-04 rev/day^2 Epoch rev: 15455 Checksum: 317
Satellite: XATCOBEO Catalog number: 38082 Epoch time: 14243.34478676 Element set: 563 Inclination: 069.3815 deg RA of node: 097.0364 deg Eccentricity: 0.0033293 Arg of perigee: 225.1799 deg Mean anomaly: 135.4582 deg Mean motion: 16.41261006 rev/day Decay rate: 1.3583328e-01 rev/day^2 Epoch rev: 13623 Checksum: 317
Satellite: CUBEBUG-1 Catalog number: 39153 Epoch time: 15029.18870651 Element set: 826 Inclination: 098.0256 deg RA of node: 113.9640 deg Eccentricity: 0.0016813 Arg of perigee: 345.8433 deg Mean anomaly: 014.2305 deg Mean motion: 14.78670400 rev/day Decay rate: 1.575e-05 rev/day^2 Epoch rev: 9493 Checksum: 298
Satellite: ESTCUBE-1 Catalog number: 39161 Epoch time: 15029.36637731 Element set: 886 Inclination: 098.0815 deg RA of node: 113.5031 deg Eccentricity: 0.0010476 Arg of perigee: 042.8545 deg Mean anomaly: 317.3480 deg Mean motion: 14.70736242 rev/day Decay rate: 1.046e-05 rev/day^2 Epoch rev: 9283 Checksum: 291
Satellite: DUCHIFAT-1 Catalog number: 40021 Epoch time: 15029.40612643 Element set: 661 Inclination: 097.9659 deg RA of node: 289.5716 deg Eccentricity: 0.0012715 Arg of perigee: 282.9699 deg Mean anomaly: 077.0130 deg Mean motion: 14.86974093 rev/day Decay rate: 2.547e-05 rev/day^2 Epoch rev: 3317 Checksum: 318
Satellite: NANOSATCBR1 Catalog number: 40024 Epoch time: 15029.43040366 Element set: 648 Inclination: 097.9640 deg RA of node: 289.4942 deg Eccentricity: 0.0011691 Arg of perigee: 280.4050 deg Mean anomaly: 079.5865 deg Mean motion: 14.86695003 rev/day Decay rate: 2.421e-05 rev/day^2 Epoch rev: 3317 Checksum: 295
Satellite: DTUSAT-2 Catalog number: 40030 Epoch time: 15028.96503327 Element set: 640 Inclination: 097.9640 deg RA of node: 288.8316 deg Eccentricity: 0.0011205 Arg of perigee: 275.5253 deg Mean anomaly: 084.4696 deg Mean motion: 14.86033565 rev/day Decay rate: 1.953e-05 rev/day^2 Epoch rev: 3310 Checksum: 291
